User: anonymous   Login
Location: Star Hoppers Observatory
(42.7905°N, 83.6127°W)
Time: 04:53:00
(UTC-04:00)
Language:

NOSS 3-1 (A) - Orbit

View from above orbital plane
View from above orbital plane
View from above satellite
View from above satellite

Ground track
Ground track

The orbit data is extracted from the following two-line orbital elements,

1 26905U 01040A   15244.97099489 0.00000000  00000-0  00000-0 0    01
2 26905  63.4260 263.1556 0311000 357.3505   2.6495 13.40723001    03
Epoch (UTC): 01 September 2015 23:18:13
Eccentricity: 0.0311000
inclination: 63.4260°
perigee height: 874 km
apogee height: 1339 km
right ascension of ascending node: 263.1556°
argument of perigee: 357.3505°
revolutions per day: 13.40723001
mean anomaly at epoch: 2.6495°
orbit number at epoch: 0

The dashed part of the orbit path shows where the satellite is in the earth's shadow,  

DLR